Location: *
(42.0175°N, 9.4056°E)
Time: 23:50:22
(UTC+00:00)

Cosmos 2221 Rocket - Pass Details

Date: 25 August 2019
Orbit: 620 x 649 km, 82.5° (Epoch: 17 September)

Event Time Altitude Azimuth Distance (km) Brightness Sun altitude
Rises 18:33:05 0° 355° (N) 2,906 7.4 -5.2°
Reaches altitude 10° 18:35:21 10° 359° (N) 1,996 6.5 -5.6°
Maximum altitude 18:39:43 60° 80° (E) 716 3.6 -6.4°
Drops below altitude 10° 18:44:04 10° 161° (SSE) 1,987 5.8 -7.2°
Sets 18:46:19 0° 164° (SSE) 2,892 6.6 -7.5°
